Location: Flynn Junction
(40.1314°N, 99.5162°W)
Time: 21:50:14
(UTC+00:00)

Okean 1-7 Rocket - Pass Details

Date: 29 October 2020
Orbit: 615 x 650 km, 82.5° (Epoch: 30 November)

Event Time Altitude Azimuth Distance (km) Brightness Sun altitude
Rises 12:13:35 0° 209° (SSW) 2,951 6.8 -10.3°
Reaches altitude 10° 12:16:01 10° 219° (SW) 2,042 5.9 -9.9°
Maximum altitude 12:20:06 33° 283° (WNW) 1,085 4.3 -9.1°
Drops below altitude 10° 12:24:13 10° 348° (NNW) 2,040 6.0 -8.3°
Sets 12:26:39 0° 358° (N) 2,948 6.9 -7.9°
